Regional Weather Roundup
Issued by NWS Newport/Morehead, NC

Current Version | Previous Version | Graphics & Text | Print | Product List | Glossary Off
Versions: 1 2 3 4 5 6 7 8 9 10 11 12 13 14 15 16 17 18 19 20 21 22 23 24 25 26 27 28 29 30 31 32 33 34 35 36 37 38 39 40 41 42 43 44 45 46 47 48 49 50

000
ASUS42 KMHX 061625
RWRMHX
WEATHER ROUNDUP FOR EASTERN NORTH CAROLINA
NATIONAL WEATHER SERVICE NEWPORT/MOREHEAD CITY NC
1200 PM EDT MON JUL 06 2015

NOTE: "FAIR" INDICATES FEW OR NO CLOUDS BELOW 12,000 FEET
WITH NO SIGNIFICANT WEATHER AND/OR OBSTRUCTIONS TO VISIBILITY

NCZ015>017-031-032-045>047-102-103-061700-
NORTH COAST

CITY           SKY/WX    TMP DP  RH WIND       PRES   REMARKS
EDENTON          N/A     84  73  68 S9        30.14S
ELIZABETH CITY MOSUNNY   86  75  69 S10       30.14F
KITTY HAWK     PTSUNNY   75  70  84 CALM      30.16S
MANTEO         PTSUNNY   78  73  86 S13       30.17S

$$

NCZ045>047-081-094-103-104-061700-
CENTRAL COAST

CITY           SKY/WX    TMP DP  RH WIND       PRES   REMARKS
FRISCO         MOSUNNY   81  74  79 S9        30.19R
SWANQUARTER      N/A     82 N/A N/A S5G15     30.12S

$$

NCZ095-097-098-100-101-061700-
SOUTHERN COAST

CITY           SKY/WX    TMP DP  RH WIND       PRES   REMARKS
BEAUFORT       PTSUNNY   81  75  82 S12       30.16F
CEDAR ISLAND     N/A     75 N/A N/A S5G17     30.21S
JACKSONVILLE   PTSUNNY   82  75  79 W3        30.14F
PINEY ISLAND   PTSUNNY  N/A N/A N/A S10       30.16S
WILMINGTON     MOSUNNY   88  70  55 S8        30.14F


$$

NCZ011>013-027>030-043-044-078>080-089-090>093-098-061700-
COASTAL PLAIN

CITY           SKY/WX    TMP DP  RH WIND       PRES   REMARKS
AHOSKIE        MOSUNNY  N/A N/A N/A S3        30.13F
CLINTON        SUNNY     85  71  61 SW5       30.14F
ELIZABETHTOWN  SUNNY     85  68  58 CALM      30.14F
GOLDSBORO      NOT AVBL
GREENVILLE     MOSUNNY   86  72  62 SW8       30.14F
HAVELOCK       MOSUNNY   87  72  60 SW9G20    30.16S
KENANSVILLE    PTSUNNY   85  69  57 S6        30.15F
KINSTON        MOSUNNY   88  70  55 SW8       30.14F
NEW BERN       TSTM      81  73  76 S13G22    30.17R
RICHLANDS      MOSUNNY   86  70  58 S7        30.14F
ROCKY MOUNT    PTSUNNY   87  72  60 SW9G17    30.13F
WASHINGTON     MOSUNNY   86  71  61 SW10      30.14S
WHITEVILLE     MOSUNNY   84  69  60 SW3       30.14F

$$

AMZ130-135-150-152-154-156-158-170-250-252-270-ANZ085-086-088-633-658-670-061700-
MARINE OBSERVATIONS

STATION/POSITION TIME  TEMP    WIND        PRES    WAVE   SWELL
                       AIR SEA DIR/SP/G            HT/PER HT/PER
                 (UTC) (F)     (DEG/KT/KT) (MB)    (FT/S) (FT/S)
CHESAPEAKE LIGHT 1600   78     170/ 12/ 13 1021.0
64 E VA BEACH    1550   78 77  210/  8/ 10 1020.9    3/ 9   2/ 9
DUCK             1600   76 78  160/  9/ 12   N/A
2 E DUCK         1511      78                N/A     2/ 9
OREGON INLET     1600   76 82  190/ 15/ 21 1021.9
13E OREGON INLT  1600      78                N/A     3/13   2/13
HATTERAS CG      1600   83 80  180/  5/  9 1022.0
DIAMOND BUOY     1550   80 83  190/ 12/ 16 1021.8    3/ 5   2/ 9
CAPE LOOKOUT     1600   80     180/  7/  9 1021.3
BEAUFORT LAB     1600   80 81  180/ 10/ 13 1020.6
30 SE NEW RVR IN NOT AVBL
27 SE WRIGHTSVLE 1600      80  220/ 12/ 14   N/A
5 SE WRIGHTSVLE  1508   79 79  210/ 10/ 14 1021.1
225 S CAPE HAT   1550   76 80  190/  6/ 10 1023.9    3/ 9   3/ 9
41 SE CHARLESTON 1550   80 83  250/  8/ 10 1020.9    3/ 9   3/ 9

$$


USA.gov is the U.S. government's official web portal to all federal, state and local government web resources and services.